Etusivu
METAR-TAF:

METAR-TAF

Lentoasemat :

Natchitoches Regional Airport

Natchitoches, Louisiana, Yhdysvallat

Leveyspiiri: 31-44-09N, Pituuspiiri: 093-05-57W, korkeus merenpinnasta: 37 m

Tämänhetkinen sää

Tämä raportti tehtiin 23 minuuttia sitten, kello 01.15 UTC
tyyntä
Lämpötila 11°C
Kosteus 87%
Ilmanpaine 1016 hPa
Näkyvyys: 16.1 km
selkeää

METAR: KIER 200115Z AUTO 00000KT 10SM CLR 11/09 A3001 RMK AO2 T01120092

Aika: 19:38 (01:38 UTC)


TAF: puuttuu

Säähavainnot ja -ennusteet yli 4000 lentoasemalta (METAR- ja TAF-raportit).

Käytössä olevat sääasemat on merkitty karttaan keltaisilla ja punaisilla pisteillä.

Aseta hiiri pisteen päälle nähdäksesi sääaseman nimen.

Klikkaa sitten nähdäksesi säähavainnot ja -ennusteet.

Kartan vaihtaminen: klikkaa mustalla rastilla varustettuja vihreitä pisteitä, niin voit zoomata sisään; viivalla varustettua vihreää pistettä, niin voit zoomata ulos tai vihreitä nuolia, niin pääset viereisille kartoille.


METAR-TAF: